IRIDIUM 91 [-]

Last updated on Thu Mar 14 2019 03:12:12 GMT+0000 (Coordinated Universal Time)

1 27372U 02005A 19072.23071266 .25300053 -14789-5 31691-3 0 9990 2 27372 86.5521 20.3199 0048647 89.1819 272.4669 16.44040915902820

Satellite not in orbit